Weather in Leushino

Russia / Tver Oblast     57°16′44″N   37°24′38″E
temp.,
°C
wind,
m/s
gust,
m/s
humid.,
%
clouds,
%
prec.,
mm/h
press.,
hPa
HPBL,
m
10 april, sat
sat1000:000s413793 0.0 1023285
03:000s414795 0.0 1023334
06:000s514815 0.0 1023338
09:00+4s614739 0.0 1024641
12:00+9ssw6116045 0.0 10231833
15:00+10ssw6115346 0.0 10222190
18:00+8s511575 0.0 1021479
21:00+5s513718 0.0 1022326
11 april, sun
sun1100:00+4ssw515745 0.0 1022417
03:00+3ssw4127917 0.0 1024312
06:00+1sw268712 0.0 1025117
09:00+6ssw237342 0.0 1027307
12:00+10sw356056 0.0 10281049
15:00+11wnw256382 0.0 1028761
18:00+7nne3480100 0.0 1030167
21:00+6ene2484100 0.0 1031100
12 april, mon
mon1200:00+7ese228724 0.0 103232
03:00+5s22868 0.0 103317
06:00+4sse22845 0.0 103335
09:00+10sse36640 0.0 1033288
12:00+14se464873 0.0 1032897
15:00+14se5744100 0.0 10301076
18:00+12se4955100 0.0 1028508
21:00+9se41069100 0.0 1028441
13 april, tue
tue1300:00+7se3889100 0.0 1027228
03:00+6se3697100 0.0 1026137
06:00+6se2396100 0.0 102455
09:00+10sse3578100 0.0 1023271
12:00+13s4769100 0.0 1022450
15:00+13sse3575100 0.1 1022314
18:00+13sse1275100 0.0 102119
21:00+11ese2281100 0.0 102128
14 april, wed
wed1400:00+11ssw2691100 0.3 1021152
03:00+10se2393100 0.5 102060
06:00+9sse3684100 0.0 1019104
09:00+12s41073100 0.0 1019396
12:00+16s366097 0.1 1018684
15:00+19s5104894 0.1 10161984
18:00+14ssw227184 0.2 101618
21:00+12ssw2382100 0.2 101752